• Em Portugal
  • Lista de países
  • Para 7 dias
  • Temperatura da água
  • Mapas de satélite
  • Mapa do tempo
  • Widgets de tempo
  • user-avatar
    Iniciar Sessão

    Previsão horária em Gislinek

    Hoje, 19 Agosto, Domingo

    Tempo Temperatura Precipitação Vento Pressão Humidade
    00:00 +17°C° 0 mm 2 m/s 757 mmHg 83%
    01:00 +17°C° 0 mm 2 m/s 757 mmHg 83%
    02:00 +17°C° 0 mm 2 m/s 757 mmHg 84%
    03:00 +17°C° 0 mm 2 m/s 757 mmHg 85%
    04:00 +17°C° 0 mm 2 m/s 757 mmHg 86%
    05:00 +18°C° 0 mm 2 m/s 757 mmHg 84%
    06:00 +19°C° 0 mm 2 m/s 757 mmHg 82%
    07:00 +20°C° 0 mm 3 m/s 757 mmHg 79%
    08:00 +22°C° 0 mm 3 m/s 757 mmHg 71%
    09:00 +24°C° 0 mm 3 m/s 757 mmHg 62%
    10:00 +26°C° 0 mm 3 m/s 757 mmHg 54%
    11:00 +27°C° 0 mm 3 m/s 757 mmHg 51%
    12:00 +27°C° 0 mm 3 m/s 757 mmHg 48%
    13:00 +28°C° 0 mm 3 m/s 757 mmHg 44%
    14:00 +28°C° 0 mm 3 m/s 756 mmHg 44%
    15:00 +28°C° 0 mm 2 m/s 756 mmHg 45%
    16:00 +28°C° 0 mm 2 m/s 756 mmHg 45%
    17:00 +26°C° 0 mm 2 m/s 756 mmHg 52%
    18:00 +24°C° 0 mm 2 m/s 756 mmHg 58%
    19:00 +21°C° 0 mm 2 m/s 755 mmHg 64%
    20:00 +20°C° 0 mm 2 m/s 755 mmHg 67%
    21:00 +20°C° 0 mm 2 m/s 755 mmHg 70%
    22:00 +20°C° 0 mm 1 m/s 755 mmHg 72%
    23:00 +19°C° 0 mm 2 m/s 755 mmHg 71%

    Amanhã, 20 Agosto, Segunda-feira

    Tempo Temperatura Precipitação Vento Pressão Humidade
    00:00 +19°C° 0 mm 2 m/s 754 mmHg 70%
    01:00 +18°C° 0 mm 2 m/s 754 mmHg 69%
    02:00 +18°C° 0 mm 2 m/s 754 mmHg 68%
    03:00 +18°C° 0 mm 3 m/s 753 mmHg 66%
    04:00 +18°C° 0 mm 3 m/s 753 mmHg 65%
    05:00 +20°C° 0 mm 3 m/s 753 mmHg 64%
    06:00 +21°C° 0 mm 4 m/s 752 mmHg 62%
    07:00 +22°C° 0 mm 4 m/s 752 mmHg 61%
    08:00 +23°C° 0 mm 5 m/s 752 mmHg 58%
    09:00 +26°C° 0 mm 5 m/s 752 mmHg 55%
    10:00 +27°C° 0 mm 5 m/s 752 mmHg 52%
    11:00 +28°C° 0 mm 5 m/s 752 mmHg 52%
    12:00 +28°C° 0 mm 6 m/s 752 mmHg 52%
    13:00 +28°C° 0 mm 6 m/s 751 mmHg 52%
    14:00 +27°C° 0,1 mm 6 m/s 751 mmHg 57%
    15:00 +26°C° 0,1 mm 5 m/s 751 mmHg 62%
    16:00 +23°C° 0,1 mm 5 m/s 751 mmHg 67%
    17:00 +23°C° 0,1 mm 5 m/s 751 mmHg 71%
    18:00 +22°C° 0,1 mm 5 m/s 751 mmHg 75%
    19:00 +21°C° 0,1 mm 5 m/s 751 mmHg 79%
    20:00 +20°C° 0 mm 5 m/s 752 mmHg 81%
    21:00 +19°C° 0 mm 5 m/s 752 mmHg 83%
    22:00 +17°C° 0 mm 5 m/s 752 mmHg 85%
    23:00 +16°C° 0 mm 5 m/s 752 mmHg 83%

    Depois de amanhã, 21 Agosto, Terça-feira

    Tempo Temperatura Precipitação Vento Pressão Humidade
    00:00 +16°C° 0 mm 5 m/s 752 mmHg 82%
    01:00 +15°C° 0 mm 5 m/s 752 mmHg 80%
    02:00 +15°C° 0 mm 5 m/s 753 mmHg 80%
    03:00 +14°C° 0 mm 5 m/s 753 mmHg 80%
    04:00 +14°C° 0 mm 4 m/s 753 mmHg 80%
    05:00 +15°C° 0 mm 5 m/s 754 mmHg 77%
    06:00 +16°C° 0 mm 5 m/s 754 mmHg 74%
    07:00 +17°C° 0 mm 5 m/s 755 mmHg 71%
    08:00 +19°C° 0 mm 5 m/s 755 mmHg 67%
    09:00 +20°C° 0 mm 5 m/s 756 mmHg 63%
    10:00 +21°C° 0 mm 5 m/s 756 mmHg 59%
    11:00 +21°C° 0 mm 5 m/s 756 mmHg 56%
    12:00 +22°C° 0 mm 5 m/s 756 mmHg 54%
    13:00 +22°C° 0 mm 4 m/s 757 mmHg 52%
    14:00 +22°C° 0 mm 4 m/s 757 mmHg 53%
    15:00 +22°C° 0 mm 4 m/s 757 mmHg 54%
    16:00 +21°C° 0 mm 4 m/s 757 mmHg 55%
    17:00 +20°C° 0 mm 3 m/s 757 mmHg 63%
    18:00 +18°C° 0 mm 3 m/s 757 mmHg 71%
    19:00 +16°C° 0 mm 2 m/s 758 mmHg 79%
    20:00 +16°C° 0 mm 2 m/s 758 mmHg 82%
    21:00 +15°C° 0 mm 2 m/s 758 mmHg 85%
    22:00 +14°C° 0 mm 1 m/s 759 mmHg 88%
    23:00 +14°C° 0 mm 1 m/s 759 mmHg 88%

    22 Agosto, Quarta-feira

    Tempo Temperatura Precipitação Vento Pressão Humidade
    00:00 +13°C° 0 mm 1 m/s 759 mmHg 89%
    01:00 +13°C° 0 mm 1 m/s 759 mmHg 90%
    02:00 +13°C° 0 mm 1 m/s 759 mmHg 90%
    03:00 +12°C° 0 mm 2 m/s 759 mmHg 91%
    04:00 +12°C° 0 mm 2 m/s 759 mmHg 91%
    05:00 +13°C° 0 mm 2 m/s 759 mmHg 86%
    06:00 +15°C° 0 mm 2 m/s 760 mmHg 81%
    07:00 +16°C° 0 mm 3 m/s 760 mmHg 76%
    08:00 +17°C° 0 mm 3 m/s 760 mmHg 69%
    09:00 +19°C° 0 mm 3 m/s 760 mmHg 61%
    10:00 +21°C° 0 mm 3 m/s 760 mmHg 54%
    11:00 +22°C° 0 mm 3 m/s 759 mmHg 51%
    12:00 +24°C° 0 mm 3 m/s 759 mmHg 49%
    13:00 +25°C° 0 mm 3 m/s 759 mmHg 46%
    14:00 +25°C° 0 mm 3 m/s 758 mmHg 46%
    15:00 +25°C° 0 mm 3 m/s 758 mmHg 46%
    16:00 +25°C° 0 mm 3 m/s 757 mmHg 47%
    17:00 +22°C° 0 mm 3 m/s 757 mmHg 52%
    18:00 +21°C° 0 mm 3 m/s 757 mmHg 57%
    19:00 +19°C° 0 mm 3 m/s 757 mmHg 62%
    20:00 +18°C° 0 mm 3 m/s 757 mmHg 61%
    21:00 +18°C° 0 mm 4 m/s 757 mmHg 60%
    22:00 +17°C° 0 mm 4 m/s 757 mmHg 59%
    23:00 +17°C° 0 mm 4 m/s 756 mmHg 59%

    23 Agosto, Quinta-feira

    Tempo Temperatura Precipitação Vento Pressão Humidade
    00:00 +17°C° 0 mm 4 m/s 756 mmHg 58%
    01:00 +15°C° 0 mm 4 m/s 756 mmHg 58%
    02:00 +15°C° 0 mm 4 m/s 756 mmHg 61%
    03:00 +15°C° 0 mm 4 m/s 755 mmHg 63%
    04:00 +15°C° 0 mm 4 m/s 755 mmHg 65%
    05:00 +17°C° 0 mm 4 m/s 755 mmHg 67%
    06:00 +18°C° 0 mm 4 m/s 755 mmHg 69%
    07:00 +19°C° 0 mm 5 m/s 755 mmHg 71%
    08:00 +21°C° 0 mm 5 m/s 754 mmHg 67%
    09:00 +22°C° 0 mm 5 m/s 754 mmHg 63%
    10:00 +25°C° 0 mm 5 m/s 754 mmHg 58%
    11:00 +26°C° 0 mm 4 m/s 754 mmHg 56%
    12:00 +26°C° 0 mm 4 m/s 754 mmHg 54%
    13:00 +27°C° 0 mm 3 m/s 753 mmHg 52%
    14:00 +27°C° 0 mm 3 m/s 753 mmHg 52%
    15:00 +27°C° 0 mm 3 m/s 753 mmHg 51%
    16:00 +28°C° 0 mm 3 m/s 752 mmHg 51%
    17:00 +26°C° 0 mm 3 m/s 752 mmHg 55%
    18:00 +25°C° 0 mm 3 m/s 752 mmHg 58%
    19:00 +24°C° 0 mm 3 m/s 752 mmHg 62%
    20:00 +22°C° 0 mm 3 m/s 751 mmHg 62%
    21:00 +22°C° 0 mm 3 m/s 751 mmHg 62%
    22:00 +21°C° 0 mm 4 m/s 751 mmHg 62%
    23:00 +21°C° 0 mm 4 m/s 751 mmHg 63%

    24 Agosto, Sexta-feira

    Tempo Temperatura Precipitação Vento Pressão Humidade
    00:00 +21°C° 0 mm 4 m/s 750 mmHg 65%
    01:00 +20°C° 0 mm 4 m/s 750 mmHg 66%
    02:00 +20°C° 0 mm 4 m/s 750 mmHg 68%
    03:00 +20°C° 0 mm 4 m/s 750 mmHg 70%
    04:00 +20°C° 0 mm 4 m/s 749 mmHg 72%
    05:00 +21°C° 0,1 mm 4 m/s 749 mmHg 73%
    06:00 +21°C° 0,1 mm 5 m/s 749 mmHg 74%
    07:00 +22°C° 0,1 mm 5 m/s 748 mmHg 75%
    08:00 +23°C° 0,3 mm 5 m/s 748 mmHg 72%
    09:00 +26°C° 0,3 mm 5 m/s 748 mmHg 69%
    10:00 +27°C° 0,3 mm 5 m/s 748 mmHg 66%
    11:00 +28°C° 0 mm 5 m/s 748 mmHg 61%
    12:00 +30°C° 0 mm 5 m/s 747 mmHg 56%
    13:00 +32°C° 0 mm 5 m/s 747 mmHg 51%
    14:00 +32°C° 0,2 mm 5 m/s 747 mmHg 51%
    15:00 +32°C° 0,2 mm 4 m/s 746 mmHg 51%
    16:00 +31°C° 0,2 mm 3 m/s 746 mmHg 52%
    17:00 +29°C° 0 mm 3 m/s 746 mmHg 55%
    18:00 +28°C° 0 mm 3 m/s 746 mmHg 58%
    19:00 +27°C° 0 mm 2 m/s 746 mmHg 61%
    20:00 +26°C° 0,6 mm 2 m/s 746 mmHg 66%
    21:00 +25°C° 0,6 mm 3 m/s 746 mmHg 71%
    22:00 +24°C° 0,6 mm 3 m/s 746 mmHg 76%
    23:00 +22°C° 0,7 mm 3 m/s 746 mmHg 79%
    Mostrar mais